Location: Friaudour
(46.0460°N, 1.2873°E)
Time: 08:47:38
(UTC+00:00)

SL-16 R/B - Pass Details

Date: 14 July 2020
Orbit: 985 x 1007 km, 99.5° (Epoch: 14 August)

Event Time Altitude Azimuth Distance (km) Brightness Sun altitude
Exits shadow 01:57:01 24° 187° (S) 1,920 3.5 -17.4°
Maximum altitude 02:00:45 59° 258° (WSW) 1,149 2.6 -17.1°
Drops below altitude 10° 02:06:57 10° 338° (NNW) 2,792 5.4 -16.5°
Sets 02:09:30 0° 342° (NNW) 3,747 6.2 -16.3°
